Regional Weather Roundup
Issued by NWS

Home | Current Version | Previous Version | Graphics & Text | Print | Product List | Glossary On
Versions: 1 2 3 4 5 6 7 8 9 10 11 12 13 14 15 16 17 18 19 20 21 22 23 24 25 26 27 28 29 30 31 32 33 34 35 36 37 38 39 40 41 42 43 44 45 46 47 48 49 50
000
ASUS43 KIND 292109
RWRIN

WEATHER ROUNDUP FOR INDIANA
NATIONAL WEATHER SERVICE INDIANAPOLIS IN
500 PM EDT MON JUN 29 2015

NOTE: "FAIR" INDICATES FEW OR NO CLOUDS BELOW 12,000 FEET WITH NO
SIGNIFICANT WEATHER AND/OR OBSTRUCTIONS TO VISIBILITY.

* - STATION DOES NOT REPORT WEATHER SUCH AS PRECIPITATION OR FOG.

+ - STATION NOT QUALITY CONTROLLED BY THE NATIONAL WEATHER SERVICE.
    USE DATA WITH CAUTION...ESPECIALLY DEWPOINT AND RELATIVE
    HUMIDITY OBSERVATIONS.

INZ001>003-010>013-019-020-292200-
NORTHWEST INDIANA

CITY           SKY/WX    TMP DP  RH WIND       PRES   REMARKS
GARY /AIRPORT/ PTSUNNY   72  64  78 SE6       29.81S
KNOX *+        CLOUDY    68  64  88 NE5       29.80F
LA PORTE +     PTSUNNY   71  64  79 SE3       29.82S
MICHIGAN CITY+ PTSUNNY   72  63  73 SE5       29.81S
MONTICELLO +   CLOUDY    71  67  87 NW5       29.79S
RENSSELAER +   MOSUNNY   72  64  78 CALM      29.81S
VALPARAISO     PTSUNNY   70  63  78 SE5       29.81S

$$

LMZ046-743>745-292200-
SOUTHERN LAKE MICHIGAN

STATION/POSITION TIME  TEMP    WIND        PRES    WAVE
                       AIR SEA DIR/SP/G            HT
                 (UTC) (F)     (DEG/KT/KT) (MB)    (FT)
BURNS HARBOR     2100   71     120/  1/  5 1009.8S
MICHIGAN CITY    2100   68     250/  4/  5   N/A
5NW MICH CITY    2100   67 66   10/  4/  4   N/A     0

$$

INZ004-005-014>016-021>024-292200-
NORTH CENTRAL INDIANA

CITY           SKY/WX    TMP DP  RH WIND       PRES   REMARKS
ELKHART        CLOUDY    66  61  82 E7        29.83F
GOSHEN         CLOUDY    65  60  84 E10       29.83S
LOGANSPORT +   PTSUNNY   72  59  64 E7        29.80F
ROCHESTER +    PTSUNNY   72  64  78 E6        29.81F
SOUTH BEND     CLOUDY    68  62  81 E10       29.82F
WARSAW +         N/A     63  61  94 E7        29.83S

$$

INZ006>009-017-018-025>027-292200-
NORTHEAST INDIANA

CITY           SKY/WX    TMP DP  RH WIND       PRES   REMARKS
ANGOLA *+      CLOUDY    63  54  72 SE8       29.85F
AUBURN +       CLOUDY    63  57  82 E6        29.85S HAZE
FORT WAYNE     CLOUDY    64  60  87 E7        29.83F
HUNTINGTON +   CLOUDY    64  60  86 NE6       29.82S

$$

INZ028-029-035-036-043>045-051>053-292200-
WEST CENTRAL INDIANA

CITY           SKY/WX    TMP DP  RH WIND       PRES   REMARKS
CRAWFORDSVL +  PTSUNNY   72  61  70 CALM      29.80F
GREENCASTLE +  MOSUNNY   75  63  64 W7        29.80F
LAFAYETTE      PTSUNNY   71  63  75 CALM      29.79F
TERRE HAUTE    MOSUNNY   79  65  62 W14       29.80S

$$

INZ030>032-037>040-046>048-054>057-064-065-292200-
CENTRAL INDIANA

CITY           SKY/WX    TMP DP  RH WIND       PRES   REMARKS
CP ATTERBURY + LGT RAIN  72  64  78 NW8       29.80S
FRANKFORT +    MOSUNNY   73  67  83 W6        29.82S
GREENWOOD *+   CLOUDY    75  63  64 W6        29.80S
INDIANAPOLIS   MOSUNNY   76  63  64 W13       29.78F
-EAGLE CREEK   SUNNY     75  64  68 W7        29.78F
KOKOMO *+      CLOUDY    73  63  68 NE5       29.79F
MARION +       CLOUDY    70  61  73 NE6       29.81F
MT COMFORT *+  MOSUNNY   73  59  60 CALM      29.80S
SHELBYVILLE    PTSUNNY   76  65  68 NW6       29.78F
ZIONSVILLE +   CLOUDY    72  63  72 CALM      29.80F

$$

INZ033-034-041-042-049-050-058-059-292200-
EAST CENTRAL INDIANA

CITY           SKY/WX    TMP DP  RH WIND       PRES   REMARKS
MUNCIE         CLOUDY    72  63  73 MISG      29.80F

$$

INZ060-061-067>069-081>083-085>088-292200-
SOUTHWEST INDIANA

CITY           SKY/WX    TMP DP  RH WIND       PRES   REMARKS
EVANSVILLE     MOSUNNY   82  68  62 NW13G22   29.83S
HUNTINGBURG *+ PTSUNNY   81  66  61 W16       29.82S
WASHINGTON +   MOSUNNY   79  62  56 W10G18    29.81S

$$

INZ062-063-066-070>080-084-089>092-292200-
SOUTH CENTRAL AND SOUTHEAST INDIANA

CITY           SKY/WX    TMP DP  RH WIND       PRES   REMARKS
BLOOMINGTON    PTSUNNY   77  65  66 W8G18     29.80F
MADISON *+     MOSUNNY   81  61  50 SW10G20   29.80F
NORTH VERNON + PTSUNNY   81  66  61 NW10G16   29.79S
SEYMOUR +      MOSUNNY   82  66  57 W12G17    29.78S

$$



USA.gov is the U.S. government's official web portal to all federal, state and local government web resources and services.